| time (UTC) | temp F | wind direction | speed knots | gust knots | rain 1hr in | rain 24hr in | rain mn in | humidity % | barometer mb |
| 20260506221512 | 50 | 150 | 0.9 | 4.3 | 0.00 | 0.00 | 0.00 | 88 | 1032.7 |
| 20260506220011 | 51 | 153 | 0.9 | 3.5 | 0.00 | 0.00 | 0.00 | 88 | 1032.6 |
| 20260506214516 | 51 | 96 | 1.7 | 5.2 | 0.00 | 0.00 | 0.00 | 88 | 1032.4 |
| 20260506213008 | 51 | 78 | 0.0 | 5.2 | 0.00 | 0.00 | 0.00 | 88 | 1032.2 |
| 20260506211505 | 50 | 50 | 0.0 | 3.5 | 0.00 | 0.00 | 0.00 | 88 | 1032.1 |
| 20260506210004 | 50 | 46 | 0.9 | 4.3 | 0.00 | 0.00 | 0.00 | 88 | 1032.1 |
| 20260506204504 | 50 | 82 | 0.0 | 1.7 | 0.00 | 0.00 | 0.00 | 87 | 1032.0 |
| 20260506203001 | 51 | 84 | 0.0 | 5.2 | 0.00 | 0.00 | 0.00 | 87 | 1031.9 |
| 20260506201601 | 51 | 84 | 0.0 | 3.5 | 0.00 | 0.00 | 0.00 | 87 | 1032.0 |
| 20260506200059 | 51 | 40 | 0.9 | 3.5 | 0.00 | 0.00 | 0.00 | 86 | 1031.8 |
| 20260506194559 | 51 | 350 | 0.0 | 2.6 | 0.00 | 0.00 | 0.00 | 86 | 1031.7 |
| 20260506193058 | 51 | 247 | 0.0 | 3.5 | 0.00 | 0.00 | 0.00 | 87 | 1031.6 |
| 20260506191558 | 51 | 225 | 0.9 | 2.6 | 0.00 | 0.00 | 0.00 | 87 | 1031.6 |
| 20260506190055 | 51 | 91 | 0.0 | 2.6 | 0.00 | 0.00 | 0.00 | 87 | 1031.6 |
| 20260506184553 | 51 | 148 | 0.0 | 1.7 | 0.00 | 0.00 | 0.00 | 87 | 1031.6 |
| 20260506183053 | 51 | 146 | 0.9 | 1.7 | 0.00 | 0.00 | 0.00 | 87 | 1031.7 |
| 20260506181551 | 51 | 98 | 0.0 | 3.5 | 0.00 | 0.00 | 0.00 | 87 | 1031.8 |
| 20260506180050 | 51 | 143 | 0.0 | 3.5 | 0.00 | 0.00 | 0.00 | 87 | 1031.8 |
| 20260506174557 | 52 | 144 | 0.0 | 1.7 | 0.00 | 0.00 | 0.00 | 87 | 1031.7 |
| 20260506173101 | 52 | 144 | 0.0 | 1.7 | 0.00 | 0.00 | 0.00 | 86 | 1031.7 |
| 20260506171549 | 51 | 144 | 0.9 | 2.6 | 0.00 | 0.00 | 0.00 | 86 | 1031.8 |
| 20260506170047 | 51 | 144 | 0.0 | 1.7 | 0.00 | 0.00 | 0.00 | 86 | 1031.8 |
| 20260506164544 | 52 | 144 | 0.0 | 0.9 | 0.00 | 0.00 | 0.00 | 85 | 1031.7 |
| 20260506163049 | 52 | 144 | 0.0 | 1.7 | 0.00 | 0.00 | 0.00 | 84 | 1031.8 |
| 20260506161541 | 52 | 144 | 0.0 | 0.9 | 0.00 | 0.00 | 0.00 | 84 | 1032.0 |
| 20260506160040 | 52 | 144 | 0.0 | 0.9 | 0.00 | 0.00 | 0.00 | 83 | 1032.0 |
| 20260506154539 | 53 | 144 | 0.0 | 0.9 | 0.00 | 0.00 | 0.00 | 82 | 1031.9 |
| 20260506153043 | 53 | 144 | 0.0 | 1.7 | 0.00 | 0.00 | 0.00 | 81 | 1031.9 |
| 20260506151537 | 53 | 144 | 0.0 | 1.7 | 0.00 | 0.00 | 0.00 | 80 | 1031.9 |
| 20260506150045 | 54 | 145 | 0.0 | 1.7 | 0.00 | 0.00 | 0.00 | 79 | 1032.0 |
| 20260506144555 | 54 | 144 | 0.0 | 1.7 | 0.00 | 0.00 | 0.00 | 78 | 1032.0 |
| 20260506143043 | 55 | 144 | 0.0 | 3.5 | 0.00 | 0.00 | 0.00 | 77 | 1032.0 |
| 20260506141534 | 55 | 63 | 0.9 | 7.0 | 0.00 | 0.00 | 0.00 | 77 | 1032.0 |
| 20260506140053 | 55 | 112 | 0.9 | 3.5 | 0.00 | 0.00 | 0.00 | 76 | 1031.9 |
| 20260506134535 | 55 | 360 | 0.9 | 2.6 | 0.00 | 0.00 | 0.00 | 76 | 1031.8 |
| 20260506133034 | 56 | 351 | 0.0 | 3.5 | 0.00 | 0.00 | 0.00 | 76 | 1031.7 |
| 20260506131541 | 56 | 90 | 0.9 | 2.6 | 0.00 | 0.00 | 0.00 | 76 | 1031.5 |
| 20260506130036 | 56 | 5 | 0.9 | 3.5 | 0.00 | 0.00 | 0.00 | 75 | 1031.5 |
| 20260506124533 | 56 | 82 | 0.9 | 3.5 | 0.00 | 0.00 | 0.00 | 75 | 1031.4 |
| 20260506123038 | 56 | 75 | 0.9 | 4.3 | 0.00 | 0.00 | 0.00 | 75 | 1031.3 |
| 20260506121530 | 56 | 58 | 0.0 | 2.6 | 0.00 | 0.00 | 0.00 | 75 | 1031.2 |
| 20260506120033 | 56 | 91 | 0.9 | 1.7 | 0.00 | 0.00 | 0.00 | 75 | 1031.2 |
| 20260506114528 | 56 | 91 | 0.0 | 1.7 | 0.00 | 0.00 | 0.00 | 73 | 1031.0 |
| 20260506113034 | 57 | 92 | 0.0 | 2.6 | 0.00 | 0.00 | 0.00 | 72 | 1030.9 |
| 20260506111527 | 57 | 92 | 0.0 | 1.7 | 0.00 | 0.00 | 0.00 | 72 | 1030.6 |
| 20260506110037 | 57 | 92 | 0.0 | 1.7 | 0.00 | 0.00 | 0.00 | 71 | 1030.6 |
| 20260506104528 | 58 | 92 | 0.0 | 1.7 | 0.00 | 0.00 | 0.00 | 69 | 1030.5 |
| 20260506103026 | 59 | 92 | 0.0 | 1.7 | 0.00 | 0.00 | 0.00 | 68 | 1030.5 |
| 20260506101532 | 60 | 92 | 0.0 | 0.9 | 0.00 | 0.00 | 0.00 | 66 | 1030.4 |
| 20260506100024 | 61 | 92 | 0.0 | 0.0 | 0.00 | 0.00 | 0.00 | 64 | 1030.3 |
| 20260506094527 | 63 | 92 | 0.0 | 1.7 | 0.00 | 0.00 | 0.00 | 62 | 1030.2 |
| 20260506093031 | 65 | 94 | 0.0 | 1.7 | 0.00 | 0.00 | 0.00 | 59 | 1030.2 |
| 20260506091522 | 67 | 102 | 0.0 | 0.9 | 0.00 | 0.00 | 0.00 | 57 | 1030.1 |
| 20260506090022 | 68 | 102 | 0.0 | 2.6 | 0.00 | 0.00 | 0.00 | 54 | 1030.0 |
| 20260506084522 | 68 | 225 | 0.9 | 3.5 | 0.00 | 0.00 | 0.00 | 55 | 1029.8 |
| 20260506083028 | 69 | 109 | 0.9 | 5.2 | 0.00 | 0.00 | 0.00 | 54 | 1029.8 |
| 20260506081520 | 69 | 20 | 0.9 | 2.6 | 0.00 | 0.00 | 0.00 | 55 | 1029.7 |
| 20260506073016 | 69 | 117 | 1.7 | 5.2 | 0.00 | 0.00 | 0.00 | 53 | 1029.5 |
| 20260506071517 | 69 | 67 | 0.0 | 5.2 | 0.00 | 0.00 | 0.00 | 54 | 1029.5 |
| 20260506061509 | 69 | 68 | 1.7 | 4.3 | 0.00 | 0.00 | 0.00 | 56 | 1029.6 |
| 20260506044555 | 66 | 76 | 0.9 | 6.1 | 0.00 | 0.00 | 0.00 | 63 | 1030.1 |
| 20260506043056 | 65 | 294 | 0.9 | 7.0 | 0.00 | 0.00 | 0.00 | 64 | 1030.3 |
| 20260506041550 | 65 | 69 | 1.7 | 8.7 | 0.00 | 0.00 | 0.00 | 64 | 1030.5 |
| 20260506040048 | 65 | 335 | 1.7 | 7.8 | 0.00 | 0.00 | 0.00 | 67 | 1030.8 |
| 20260506034605 | 64 | 70 | 0.9 | 4.3 | 0.00 | 0.00 | 0.00 | 66 | 1030.8 |
| 20260506033044 | 63 | 42 | 1.7 | 3.5 | 0.00 | 0.00 | 0.00 | 66 | 1031.1 |
| 20260506031549 | 62 | 54 | 1.7 | 7.8 | 0.00 | 0.00 | 0.00 | 68 | 1031.4 |
| 20260506030039 | 62 | 122 | 0.9 | 7.8 | 0.00 | 0.00 | 0.00 | 69 | 1031.4 |
| 20260506024536 | 61 | 36 | 1.7 | 7.8 | 0.00 | 0.00 | 0.00 | 69 | 1031.5 |
| 20260506023034 | 60 | 87 | 2.6 | 9.6 | 0.00 | 0.00 | 0.00 | 72 | 1031.6 |
| 20260506021529 | 59 | 79 | 1.7 | 7.8 | 0.00 | 0.00 | 0.00 | 76 | 1031.7 |
| 20260506020027 | 57 | 69 | 0.9 | 4.3 | 0.00 | 0.00 | 0.00 | 83 | 1031.9 |
| 20260506014523 | 54 | 300 | 0.0 | 2.6 | 0.00 | 0.00 | 0.00 | 89 | 1032.0 |
| 20260506013021 | 52 | 298 | 0.9 | 3.5 | 0.00 | 0.00 | 0.00 | 94 | 1032.0 |
| 20260506011518 | 50 | 238 | 0.9 | 1.7 | 0.00 | 0.00 | 0.00 | 94 | 1032.1 |
| 20260506010029 | 49 | 238 | 0.0 | 1.7 | 0.00 | 0.00 | 0.00 | 95 | 1032.1 |
| 20260506004508 | 47 | 238 | 0.9 | 2.6 | 0.00 | 0.00 | 0.00 | 94 | 1031.9 |
| 20260506003008 | 47 | 238 | 0.0 | 0.0 | 0.00 | 0.00 | 0.00 | 94 | 1032.0 |
| 20260506001506 | 46 | 238 | 0.0 | 0.0 | 0.00 | 0.00 | 0.00 | 94 | 1031.9 |
| 20260506000005 | 45 | 238 | 0.0 | 0.0 | 0.00 | 0.00 | 0.00 | 94 | 1031.8 |
| 20260505234504 | 44 | 238 | 0.0 | 0.0 | 0.00 | 0.00 | 0.00 | 93 | 1031.7 |
| 20260505233008 | 44 | 238 | 0.0 | 0.0 | 0.00 | 0.00 | 0.00 | 93 | 1031.5 |
| 20260505231601 | 44 | 238 | 0.0 | 0.0 | 0.00 | 0.00 | 0.00 | 93 | 1031.3 |
| 20260505230100 | 44 | 238 | 0.0 | 0.9 | 0.00 | 0.00 | 0.00 | 93 | 1031.2 |
| 20260505224557 | 44 | 237 | 0.0 | 0.0 | 0.00 | 0.00 | 0.00 | 93 | 1031.0 |
| 20260505223056 | 43 | 237 | 0.0 | 0.9 | 0.00 | 0.00 | 0.00 | 92 | 1030.8 |